STARLINK-4581, 53576

Orbit data source: Space-Track

STARLINK-4581, 53576 is a payload satellite owned by SpaceX/Seattle (US) in LEO that was launched on Fri, 19 Aug 2022 UTC via an FALCON 9 launch vehicle from the Air Force Eastern Test Range (AFETR). Payload-class satellites include a variety of spacecraft equipped with specific instruments for various scientific and technological missions. These include communications satellites like Starlink; space stations such as the ISS; scientific satellites like the Hubble; Earth observation satellites from companies like Planet Labs, Umbra, and HawkEye 360; GPS; miniature CubeSats for education and research; and military/defense satellites.

Loading next visibility...
Identifier
53576, 2022-101BB
Orbit
LEO
Country
Flag of USUS
Related business
Manufacturer
SpaceX/Seattle
Mission
Operational Commercial Communications
Bus & Motor
STARLINK, Unknown motor
Mass
300 kg wet, ~290 kg dry
Launch date (UTC)
2022-08-19 (4 years ago)
Launch vehicle
FALCON 9
Launch site
Air Force Eastern Test Range (AFETR)
Object type
Payload
Rocket body
Debris
Shape & HBR
Box + 1 Pan, 10.1 m
Radar Cross Section
13.562 m², Large (>1 m²)

Expand to show TLE details & history
Last TLE update: 3 days ago

TLE from 3 days ago
0 STARLINK-4581
1 53576U 22101BB  26170.80306620  .00000265  00000-0  34710-4 0  9995
2 53576  53.1599 315.4012 0001131  81.3842 278.7278 15.08836990212687
Epoch: 2026-06-19T19:16Z
TLE epoch observation values (Epoch: 2026-06-19T19:16:24.919Z)
Latitude
0.00001°
Longitude
118.27057°
Altitude
540.525 km
Speed
7.593 km/s
True Right ascension
21h 01m 36s
True Declination
0° 00' 00"
Sunlit
Object was in full shadow at epoch
Visualization orbit readout
Latitude
Unknown
Longitude
Unknown
Altitude
Unknown
Speed
Unknown
Apparent Right ascension
Unknown
Apparent Declination
Unknown
Sunlit
N/A
Visualization observer readout
Local Sidereal Time
23:07:38
Azimuth
Unknown
Elevation
Unknown
Doppler factor
Unknown
Orbital elements
Apogee altitude
540.789 km
Perigee altitude
539.224 km
Semi-major axis
6,918.144 km
Eccentricity
0.00011
Inclination
53.1599°
RAAN
315.4012°
Arg. of periapsis
81.3842°
True anomaly
278.71499°
Mean anomaly
278.7278°
Eccentric anomaly
278.72139°
Mean motion
3.77189 °/min
Orbital period
95.44 mins
BSTAR
0.00003471
Loading maneuver chart data...
Computing Atmospheric mass density...
Loading historical data...
Loading historical data...
Loading historical data...
Loading historical data...
Loading historical data...
Loading historical data...
Loading historical data...

Documentation

Showing up to 5 results
|